This is the latest recevied weather packets stored in our database for station/object KG7FOQ-13. If no packets are shown the sender has not sent any weather packets the latest 1 day(s).
| Time | Temp. | Humidity | Pressure | Rain* | Wind** | Luminosity | Snow |
|---|---|---|---|---|---|---|---|
| 1778100086 | 18.33° C | 31% | 1018.9 hPa | 0 mm | - | - | - |
| 1778099485 | 18.33° C | 32% | 1018.8 hPa | 0 mm | - | - | - |
| 1778097980 | 17.78° C | 33% | 1019 hPa | 0 mm | - | - | - |
| 1778097680 | 17.22° C | 35% | 1019.2 hPa | 0 mm | - | - | - |
| 1778097078 | 17.22° C | 32% | 1019.3 hPa | 0 mm | - | - | - |
| 1778096477 | 16.67° C | 33% | 1019.3 hPa | 0 mm | - | - | - |
| 1778096176 | 16.67° C | 33% | 1019.4 hPa | 0 mm | - | - | - |
| 1778095876 | 16.67° C | 36% | 1019.4 hPa | 0 mm | - | - | - |
| 1778095623 | 16.67° C | 34% | 1019.5 hPa | 0 mm | - | - | - |
| 1778094073 | 15.56° C | 34% | 1019.9 hPa | 0 mm | - | - | - |
| 1778093471 | 15.56° C | 34% | 1019.9 hPa | 0 mm | - | - | - |
| 1778092565 | 15.56° C | 37% | 1020 hPa | 0 mm | - | - | - |
| 1778091363 | 14.44° C | 35% | 1020 hPa | 0 mm | - | - | - |
| 1778089560 | 13.89° C | 38% | 1020.1 hPa | 0 mm | - | - | - |
| 1778088959 | 13.89° C | 36% | 1020.2 hPa | 0 mm | - | - | - |
| 1778088358 | 13.33° C | 37% | 1020.2 hPa | 0 mm | - | - | - |
| 1778087757 | 12.78° C | 38% | 1020.2 hPa | 0 mm | - | - | - |
| 1778087156 | 12.22° C | 40% | 1020.2 hPa | 0 mm | - | - | - |
| 1778086855 | 11.67° C | 40% | 1020.2 hPa | 0 mm | - | - | - |
| 1778086555 | 11.67° C | 40% | 1020.2 hPa | 0 mm | - | - | - |
| 1778083247 | 9.44° C | 46% | 1020.2 hPa | 0 mm | - | - | - |
| 1778082044 | 8.89° C | 48% | 1020.3 hPa | 0 mm | - | - | - |
| 1778080840 | 8.33° C | 51% | 1020.3 hPa | 0 mm | - | - | - |
| 1778079638 | 8.33° C | 50% | 1020.2 hPa | 0 mm | - | - | - |
| 1778079037 | 7.78° C | 50% | 1020.2 hPa | 0 mm | - | - | - |
* Rain latest hour (hover to see other rain measurements)
** Current wind speed in m/s (hover to see current wind gust speed)